SHIELDS 1

Last updated on Fri Feb 13 2026 00:03:54 GMT+0000 (Coordinated Universal Time)

1 43850U 18104B 26042.46518754 .03020981 -14849-5 52084-3 0 9995 2 43850 84.9862 218.4156 0006001 271.2264 88.8350 16.33034857400351

Satellite not in orbit

SHIELDS 1